Home   Weather   Hefei   Past weeks

Flag for China Past Weather in Hefei, Anhui, China — Yesterday and Last 2 Weeks

Now
75 °F

Fog.


Feels Like: 75 °F
Forecast: 70 / 88 °F
Wind: 6 mph from East

Location: Hefei Airport

Current Time: Sep 25, 2016 at 10:09:59 AM

Latest Report: Sep 25, 2016 at 9:00 AM


Visibility: 2 mi

Pressure: 29.92 "Hg

Humidity: 83%

Dew Point: 70 °F

Location of HefeiLocation

Past Weather in Hefei — Graph

°F

Hefei Temperature Yesterday

Maximum temperature yesterday: 88 °F (at 2:00 PM)
Minimum temperature yesterday: 64 °F (at 3:00 AM)
Average temperature yesterday: 76 °F

High & Low Weather Summary for the Past Weeks

 TemperatureHumidityPressure
High91 °F (Sep 10, 2:00 PM)100% (Sep 15, 2:00 PM)30.15 "Hg (Sep 15, 2:00 PM)
Low57 °F (Sep 22, 5:00 AM)34% (Sep 10, 3:00 PM)29.77 "Hg (Sep 10, 3:00 PM)
Average74 °F73%29.96 "Hg
* Reported Sep 10 9:00 AM — Sep 25 9:00 AM, Hefei, Weather by CustomWeather, © 2016

Note: Actual official high and low records may vary slightly from our data, if they occured in-between our weather recording intervals... More about our weather records

Advertising

Hefei Weather History for the Previous 24 Hours

Scroll right to see more
 ConditionsComfort  
Time TempWeatherWind HumidityBarometerVisibility
9:00 AM
Sun, Sep 25
75 °FFog.6 mph83%29.92 "Hg2 mi
8:00 AM73 °FFog.3 mph89%29.92 "Hg2 mi
7:00 AM73 °FFog.3 mph89%29.89 "Hg2 mi
6:00 AM72 °FFog.3 mph88%29.86 "Hg2 mi
5:00 AM73 °FFog.3 mph83%29.86 "Hg2 mi
4:00 AM73 °FFog.3 mph83%29.83 "Hg2 mi
3:00 AM73 °FFog.6 mph83%29.83 "Hg2 mi
2:00 AM75 °FFog.8 mph78%29.83 "Hg2 mi
1:00 AM73 °FFog.6 mph89%29.86 "Hg2 mi
12:00 AM75 °FFog.3 mph83%29.86 "Hg3 mi
11:00 PM
Sat, Sep 24
75 °FClear.3 mph83%29.86 "Hg4 mi
10:00 PM77 °FClear.6 mph74%29.86 "Hg4 mi
9:00 PM77 °FClear.6 mph74%29.86 "Hg5 mi
8:00 PM79 °FClear.8 mph70%29.86 "Hg5 mi
7:00 PM77 °FClear.6 mph69%29.83 "Hg10 mi
6:00 PM81 °FSunny.No wind62%29.83 "Hg10 mi
5:00 PM84 °FSunny.3 mph48%29.83 "Hg10 mi
4:00 PM86 °FPassing clouds.6 mph49%29.83 "HgN/A
3:00 PM86 °FPassing clouds.3 mph46%29.83 "HgN/A
2:00 PM88 °FPassing clouds.3 mph43%29.83 "HgN/A
1:00 PM86 °FScattered clouds.6 mph49%29.86 "HgN/A
12:00 PM86 °FPassing clouds.6 mph52%29.89 "HgN/A
11:00 AM82 °FPassing clouds.8 mph62%29.92 "Hg4 mi
10:00 AM81 °FHaze.8 mph70%29.92 "Hg2 mi
Weather by CustomWeather, © 2016

See weather overviewHow to use our weather pages